Home   Weather   Moose Jaw   Past weeks

Flag for Canada Past Weather in Moose Jaw, Saskatchewan, Canada — Yesterday and Last 2 Weeks

Now
27 °F

Overcast.


Feels Like: 15 °F
Forecast: 23 / 29 °F
Wind: 15 mph from Northwest

Location: Regina Weather Station

Current Time: Jan 22, 2017 at 12:28:31 pm

Latest Report: Jan 22, 2017 at 12:00 pm


Visibility: 15 mi

Pressure: 29.85 "Hg (27.80 "Hg at 560m altitude)

Humidity: 86%

Dew Point: 23 °F

Location of Moose JawLocation

Past Weather in Moose Jaw — Graph

°F

Moose Jaw Temperature Yesterday

Maximum temperature yesterday: 28 °F (at 1:00 pm)
Minimum temperature yesterday: 18 °F (at 3:00 am)
Average temperature yesterday: 22 °F

High & Low Weather Summary for the Past Weeks

 TemperatureHumidityPressure
High39 °F (Jan 17, 4:00 pm)100% (Jan 20, 6:00 am)30.69 "Hg (Jan 20, 6:00 am)
Low-29 °F (Jan 11, 8:00 am)57% (Jan 12, 3:00 pm)29.37 "Hg (Jan 21, 5:00 am)
Average8 °F81%29.93 "Hg
* Reported Jan 7 11:00 am — Jan 22 11:00 am, Moose Jaw, Weather by CustomWeather, © 2017

Note: Actual official high and low records may vary slightly from our data, if they occured in-between our weather recording intervals... More about our weather records

Advertising

Moose Jaw Weather History for the Previous 24 Hours

Scroll right to see more
 ConditionsComfort  
Time TempWeatherWind HumidityBarometerVisibility
11:00 am
Sun, Jan 22
27 °FMostly cloudy.15 mph86%29.84 "Hg15 mi
10:25 am27 °FMostly cloudy.10 mph86%29.83 "Hg15 mi
9:18 am27 °FCloudy.13 mph86%29.83 "Hg15 mi
9:00 am27 °FMostly cloudy.13 mph86%29.82 "Hg15 mi
8:24 am27 °FLow clouds.12 mph86%29.80 "Hg15 mi
8:00 am27 °FMostly cloudy.12 mph93%29.80 "Hg15 mi
7:33 am27 °FOvercast.13 mph93%29.80 "Hg15 mi
7:00 am27 °FOvercast.13 mph93%29.79 "Hg15 mi
6:00 am27 °FMostly cloudy.8 mph93%29.78 "Hg15 mi
5:43 am27 °FMostly cloudy.8 mph93%29.78 "Hg15 mi
5:17 am25 °FLow clouds.5 mph100%29.77 "Hg15 mi
4:00 am25 °FLight snow. Overcast.7 mph93%29.75 "Hg6 mi
3:50 am25 °FLight snow. Overcast.7 mph93%29.75 "Hg8 mi
3:00 am25 °FOvercast.9 mph93%29.73 "Hg15 mi
2:00 am23 °FMostly cloudy.8 mph93%29.72 "Hg15 mi
1:00 am25 °FPassing clouds.9 mph86%29.70 "Hg15 mi
12:35 am25 °FMostly cloudy.10 mph93%29.70 "Hg15 mi
12:00 am25 °FLight snow. Overcast.10 mph93%29.69 "Hg15 mi
11:36 pm
Sat, Jan 21
25 °FLight snow. Overcast.12 mph93%29.68 "Hg15 mi
11:00 pm25 °FLight snow. Low clouds.14 mph93%29.67 "Hg10 mi
10:00 pm27 °FLight snow. Low clouds.7 mph93%29.65 "Hg8 mi
9:00 pm27 °FLight snow. Overcast.9 mph93%29.64 "Hg10 mi
8:37 pm27 °FLight snow. Ice fog.9 mph93%29.62 "Hg5 mi
7:00 pm25 °FLight snow. Overcast.10 mph93%29.59 "Hg10 mi
6:00 pm25 °FLight snow. Low clouds.9 mph93%29.57 "Hg6 mi
5:00 pm25 °FIce fog.13 mph100%29.54 "Hg5 mi
4:00 pm25 °FIce fog.12 mph100%29.52 "Hg4 mi
3:00 pm25 °FIce fog.9 mph100%29.48 "Hg3 mi
2:40 pm25 °FLight snow. Ice fog.10 mph100%29.47 "Hg1 mi
2:00 pm25 °FIce fog.9 mph100%29.45 "Hg3 mi
1:27 pm27 °FIce fog.10 mph93%29.44 "Hg3 mi
1:00 pm28 °FIce fog.9 mph93%29.44 "Hg1 mi
12:14 pm25 °FIce fog.No wind93%29.43 "Hg1 mi
12:00 pm25 °FIce fog.No wind93%29.43 "Hg1 mi
Weather by CustomWeather, © 2017

See weather overviewHow to use our weather pages